Weather History for Batesville, AR

Change the Weather History Date:

Tuesday, October 30, 2012

  Actual Average Record
Temperature  
Mean Temperature 50 °F -  
Max Temperature 64 °F 68 °F 84 °F (1968)
Min Temperature 35 °F 44 °F 27 °F (1953)
Degree Days  
Heating Degree Days 16    
Moisture  
Dew Point 32 °F    
Average Humidity 53    
Maximum Humidity 81    
Minimum Humidity 28    
Precipitation  
Precipitation 0.00 in - - ()
Sea Level Pressure  
Sea Level Pressure 30.03 in    
Wind  
Wind Speed 3 mph (WNW)    
Max Wind Speed 9 mph    
Max Gust Speed -    
Visibility 10 miles    
Events      
Averages and records for this station are not official NWS values.
T = Trace of Precipitation, MM = Missing Value Source: NWS Daily Summary

Daily Weather History Graph

Daily Weather History Graph

Search for Another Location

Airport:

Trip Planner

Search our weather history database for the weather conditions in past years. The results will help you decide how hot, cold, wet, or windy it might be!

Date:

Astronomy

Oct. 30, 2012 Rise Set
Actual Time 7:27 AM CDT 6:12 PM CDT
Civil Twilight 7:00 AM CDT 6:39 PM CDT
Nautical Twilight 6:30 AM CDT 7:09 PM CDT
Astronomical Twilight 6:00 AM CDT 7:38 PM CDT
Moon 6:45 PM CDT (10/30) 8:11 AM CDT (10/30)
Length of Visible Light 11h 38m
Length of Day
10h 45m
Full, 99% of the Moon is Illuminated
Oct 30
Full
Nov 6
Last Quarter
Nov 13
New
Nov 20
First Quarter
Nov 28
Full

Hourly Weather History & Observations

Time (CDT) Temp. Windchill Dew Point Humidity Pressure Visibility Wind Dir Wind Speed Gust Speed Precip Events Conditions
12:15 AM 41.0 °F - 30.2 °F 65% 30.12 in 10.0 mi Calm Calm - N/A   Clear
12:35 AM 39.2 °F - 30.2 °F 70% 30.12 in 10.0 mi Calm Calm - N/A   Clear
1:15 AM 39.2 °F - 28.4 °F 65% 30.11 in 10.0 mi Calm Calm - N/A   Clear
1:35 AM 37.4 °F - 28.4 °F 70% 30.11 in 10.0 mi Calm Calm - N/A   Clear
1:55 AM 37.4 °F - 28.4 °F 70% 30.11 in 10.0 mi Calm Calm - N/A   Clear
2:55 AM 37.4 °F 33.8 °F 30.2 °F 75% 30.11 in 10.0 mi WNW 4.6 mph - N/A   Clear
3:15 AM 37.4 °F 33.8 °F 30.2 °F 75% 30.10 in 10.0 mi West 4.6 mph - N/A   Clear
3:55 AM 39.2 °F 35.9 °F 28.4 °F 65% 30.09 in 10.0 mi WNW 4.6 mph - N/A   Clear
4:15 AM 37.4 °F 34.9 °F 28.4 °F 70% 30.09 in 10.0 mi West 3.5 mph - N/A   Clear
4:36 AM 37.4 °F 33.8 °F 28.4 °F 70% 30.09 in 10.0 mi West 4.6 mph - N/A   Clear
4:55 AM 37.4 °F 34.9 °F 28.4 °F 70% 30.09 in 10.0 mi WNW 3.5 mph - N/A   Clear
5:15 AM 37.4 °F 33.8 °F 28.4 °F 70% 30.09 in 10.0 mi West 4.6 mph - N/A   Clear
5:35 AM 35.6 °F 31.7 °F 28.4 °F 75% 30.09 in 10.0 mi WNW 4.6 mph - N/A   Clear
6:15 AM 35.6 °F 32.8 °F 30.2 °F 81% 30.08 in 10.0 mi WNW 3.5 mph - N/A   Clear
6:35 AM 35.6 °F 32.8 °F 28.4 °F 75% 30.09 in 10.0 mi West 3.5 mph - N/A   Clear
7:15 AM 35.6 °F - 28.4 °F 75% 30.08 in 10.0 mi Calm Calm - N/A   Clear
7:35 AM 35.6 °F 32.8 °F 28.4 °F 75% 30.09 in 10.0 mi West 3.5 mph - N/A   Clear
7:56 AM 35.6 °F 31.7 °F 28.4 °F 75% 30.09 in 10.0 mi West 4.6 mph - N/A   Clear
8:35 AM 37.4 °F 32.8 °F 30.2 °F 75% 30.09 in 10.0 mi West 5.8 mph - N/A   Clear
9:15 AM 42.8 °F 41.1 °F 33.8 °F 70% 30.10 in 10.0 mi West 3.5 mph - N/A   Clear
9:35 AM 42.8 °F 39.3 °F 32.0 °F 66% 30.10 in 10.0 mi WNW 5.8 mph - N/A   Clear
10:15 AM 46.4 °F 44.3 °F 33.8 °F 62% 30.10 in 10.0 mi West 4.6 mph - N/A   Clear
10:35 AM 48.2 °F - 33.8 °F 58% 30.09 in 10.0 mi WSW 4.6 mph - N/A   Clear
10:55 AM 51.8 °F - 32.0 °F 47% 30.08 in 10.0 mi West 5.8 mph - N/A   Clear
11:15 AM 53.6 °F - 32.0 °F 44% 30.07 in 6.0 mi WNW 8.1 mph - N/A   Clear
11:35 AM 53.6 °F - 30.2 °F 41% 30.06 in 2.5 mi WNW 4.6 mph - N/A   Partly Cloudy
11:55 AM 55.4 °F - 30.2 °F 38% 30.05 in 10.0 mi WNW 3.5 mph - N/A   Clear
12:16 PM 57.2 °F - 30.2 °F 36% 30.04 in 10.0 mi West 8.1 mph - N/A   Clear
12:35 PM 57.2 °F - 30.2 °F 36% 30.03 in 7.0 mi WNW 8.1 mph - N/A   Clear
12:55 PM 59.0 °F - 32.0 °F 36% 30.03 in 10.0 mi WNW 8.1 mph - N/A   Clear
1:35 PM 60.8 °F - 32.0 °F 34% 29.99 in 10.0 mi Calm Calm - N/A   Clear
1:55 PM 62.6 °F - 33.8 °F 34% 29.99 in 10.0 mi West 9.2 mph - N/A   Clear
2:15 PM 62.6 °F - 32.0 °F 32% 29.98 in 10.0 mi WNW 6.9 mph - N/A   Clear
2:35 PM 62.6 °F - 32.0 °F 32% 29.97 in 10.0 mi WNW 9.2 mph - N/A   Clear
2:55 PM 64.4 °F - 33.8 °F 32% 29.96 in 9.0 mi NW 4.6 mph - N/A   Clear
3:15 PM 64.4 °F - 30.2 °F 28% 29.96 in 10.0 mi WNW 6.9 mph - N/A   Clear
3:55 PM 64.4 °F - 33.8 °F 32% 29.95 in 10.0 mi West 9.2 mph - N/A   Clear
4:15 PM 64.4 °F - 32.0 °F 30% 29.95 in 10.0 mi West 5.8 mph - N/A   Clear
4:35 PM 64.4 °F - 33.8 °F 32% 29.94 in 10.0 mi NNW 4.6 mph - N/A   Clear
4:55 PM 64.4 °F - 33.8 °F 32% 29.94 in 10.0 mi NW 4.6 mph - N/A   Clear
5:15 PM 62.6 °F - 32.0 °F 32% 29.94 in 10.0 mi NNW 5.8 mph - N/A   Clear
5:55 PM 60.8 °F - 35.6 °F 39% 29.95 in 10.0 mi Calm Calm - N/A   Partly Cloudy
6:15 PM 60.8 °F - 33.8 °F 36% 29.95 in 10.0 mi NW 3.5 mph - N/A   Scattered Clouds
6:35 PM 60.8 °F - 33.8 °F 36% 29.95 in 10.0 mi SSW 4.6 mph - N/A   Mostly Cloudy
7:15 PM 57.2 °F - 37.4 °F 48% 29.95 in 10.0 mi SW 3.5 mph - N/A   Mostly Cloudy
7:35 PM 57.2 °F - 35.6 °F 44% 29.94 in 10.0 mi Calm Calm - N/A   Overcast
8:15 PM 55.4 °F - 35.6 °F 47% 29.95 in 10.0 mi West 4.6 mph - N/A   Overcast
8:35 PM 55.4 °F - 35.6 °F 47% 29.95 in 10.0 mi West 4.6 mph - N/A   Overcast
8:55 PM 55.4 °F - 37.4 °F 51% 29.95 in 10.0 mi West 3.5 mph - N/A   Mostly Cloudy
9:16 PM 55.4 °F - 35.6 °F 47% 29.96 in 10.0 mi WNW 3.5 mph - N/A   Scattered Clouds
9:35 PM 55.4 °F - 35.6 °F 47% 29.96 in 10.0 mi WNW 3.5 mph - N/A   Mostly Cloudy
9:55 PM 55.4 °F - 37.4 °F 51% 29.96 in 10.0 mi WNW 4.6 mph - N/A   Overcast
10:35 PM 53.6 °F - 37.4 °F 54% 29.96 in 10.0 mi Calm Calm - N/A   Overcast
10:55 PM 55.4 °F - 37.4 °F 51% 29.96 in 10.0 mi WNW 4.6 mph - N/A   Overcast
11:15 PM 53.6 °F - 35.6 °F 51% 29.96 in 10.0 mi WNW 3.5 mph - N/A   Scattered Clouds
11:36 PM 51.8 °F - 35.6 °F 54% 29.96 in 10.0 mi West 3.5 mph - N/A   Clear
11:55 PM 50.0 °F - 35.6 °F 58% 29.96 in 10.0 mi West 3.5 mph - N/A   Clear